Waarnemingen

Advertentie
Mijn weer
Cap Corse, Frankrijk (7785): temperatuur & dauwpunt: 16.01.2018 17:00:00 - 22.01.2018 17:00:00 (CET)Cap Corse, Frankrijk (7785): windsnelheid & windstoten: 16.01.2018 17:00:00 - 22.01.2018 17:00:00 (CET)Cap Corse, Frankrijk (7785): windrichting: 16.01.2018 17:00:00 - 22.01.2018 17:00:00 (CET)Cap Corse, Frankrijk (7785): luchtdruk: 16.01.2018 17:00:00 - 22.01.2018 17:00:00 (CET)Cap Corse, Frankrijk (7785): zicht: 16.01.2018 17:00:00 - 22.01.2018 17:00:00 (CET)Cap Corse, Frankrijk (7785): neerslag: 16.01.2018 17:00:00 - 22.01.2018 17:00:00 (CET)
Datum & Tijd tt [°C] td [°C] ff [km/u] ff [kn] fx [km/u] fx [kn] dd ppp [hPa] vv [km] rr [mm]
22.01.2018 17:00:00 - - - - - - - - - -
22.01.2018 16:00:00 - - 28 15 54 29 WZW - 15 -
22.01.2018 15:00:00 - - 25 13 42 23 WZW - - -
22.01.2018 14:00:00 - - 21 12 36 19 WZW - - -
22.01.2018 13:00:00 - - 18 10 44 24 W - 15 -
22.01.2018 12:00:00 - - 23 12 40 22 WZW - - -
22.01.2018 11:00:00 - - 21 11 - - W - - -
22.01.2018 10:00:00 13,2 9,3 15 8 26 14 ZO 1014,7 15 0,0
22.01.2018 09:00:00 13,5 9,7 17 9 48 26 WZW 1014,0 - 0,0
22.01.2018 08:00:00 13,1 9,3 18 10 34 18 ZW 1013,4 - 0,0
22.01.2018 07:00:00 12,1 6,6 19 10 37 20 ZW 1013,2 20 0,0
22.01.2018 06:00:00 11,6 4,8 26 14 34 19 WZW 1013,0 - 0,0
22.01.2018 05:00:00 12,2 4,7 5 3 47 26 W 1012,3 - 0,0
22.01.2018 04:00:00 13,3 5,2 29 16 41 22 ZZO 1012,5 30 0,0
22.01.2018 03:00:00 13,2 3,8 24 13 44 24 ZO 1012,6 - 0,0
22.01.2018 02:00:00 12,8 2,6 24 13 39 21 ZO 1013,0 - 0,0
22.01.2018 01:00:00 12,6 3,0 5 3 21 12 WZW 1012,8 - 0,0
22.01.2018 00:00:00 12,9 3,3 17 9 27 15 ZO 1012,5 - 0,0
21.01.2018 23:00:00 12,1 5,5 15 8 18 10 O 1012,2 - 0,0
21.01.2018 22:00:00 12,7 7,6 8 4 36 20 O 1012,1 - 0,0
21.01.2018 21:00:00 14,2 3,3 24 13 53 29 ZW 1011,5 - 0,0
21.01.2018 20:00:00 13,9 5,8 31 17 61 33 ZW 1010,6 - 0,0
21.01.2018 19:00:00 13,7 7,0 39 21 66 35 WZW 1009,9 - 0,0
21.01.2018 18:00:00 13,7 7,5 31 17 69 37 WZW 1009,1 - 0,0
21.01.2018 17:00:00 13,9 8,1 42 23 67 36 ZW 1008,7 - 0,0
21.01.2018 16:00:00 15,6 6,6 25 13 55 30 W 1008,2 30 0,0
21.01.2018 15:00:00 16,4 7,1 20 11 35 19 W 1008,1 - 0,0
21.01.2018 14:00:00 17,0 1,8 17 9 26 14 NNW 1007,5 - -
21.01.2018 13:00:00 - - 16 9 50 27 W - 30 -
21.01.2018 12:00:00 - - - - 61 33 - - - -
21.01.2018 11:00:00 15,4 8,4 32 17 63 34 WZW 1006,8 - 0,0
21.01.2018 10:00:00 14,8 8,9 36 20 71 39 WZW 1006,0 20 0,0
21.01.2018 09:00:00 14,5 9,1 37 20 91 49 W 1005,3 - 0,0
21.01.2018 08:00:00 14,2 9,2 57 31 124 67 W 1003,6 - 0,0
21.01.2018 07:00:00 14,4 10,0 79 42 135 73 W 1001,9 10 0,0
21.01.2018 06:00:00 14,3 10,3 73 39 - - W 1000,5 - 0,0
21.01.2018 05:00:00 14,2 10,2 84 45 167 90 WZW 999,5 - 0,0
21.01.2018 04:00:00 13,9 10,3 82 44 - - WZW 1000,4 - 0,0
21.01.2018 03:00:00 14,0 10,2 86 47 148 80 WZW 1001,9 - 0,0
21.01.2018 02:00:00 13,9 9,9 82 45 164 89 WZW 1002,4 - 0,0
21.01.2018 01:00:00 13,7 9,5 81 44 157 85 WZW 1003,4 - 0,0
21.01.2018 00:00:00 13,0 9,4 83 45 145 78 W 1004,8 - 0,0
20.01.2018 23:00:00 12,2 9,2 79 43 150 81 WZW 1005,7 - 0,2
20.01.2018 22:00:00 11,2 9,1 84 46 - - WZW 1006,8 - 0,6
20.01.2018 21:00:00 10,5 8,1 76 41 146 79 WZW 1007,8 - 0,2
20.01.2018 20:00:00 11,0 7,1 71 39 132 71 W 1008,9 - 0,0
20.01.2018 19:00:00 11,6 6,7 87 47 129 69 W 1009,2 - 0,0
20.01.2018 18:00:00 11,8 5,4 79 43 131 71 W 1009,8 - 0,0
20.01.2018 17:00:00 11,7 4,2 79 43 123 66 W 1009,5 - 0,0
20.01.2018 16:00:00 11,4 2,4 62 33 126 68 W 1010,8 - 0,0
20.01.2018 15:00:00 11,3 1,8 72 39 126 68 W 1011,0 - 0,0
20.01.2018 14:00:00 11,5 2,0 63 34 104 56 W 1011,8 - 0,0
20.01.2018 13:00:00 11,9 2,1 48 26 93 50 W 1012,4 30 0,0
20.01.2018 12:00:00 12,3 2,4 49 26 81 44 WZW 1014,0 - 0,0
20.01.2018 11:00:00 12,3 2,7 44 24 67 36 WZW 1014,3 - 0,0
20.01.2018 10:00:00 11,8 2,3 37 20 68 37 WZW 1014,5 12 0,0
20.01.2018 09:00:00 11,8 3,3 32 18 67 36 WZW 1014,3 - 0,0
20.01.2018 08:00:00 11,3 4,3 34 19 56 30 W 1014,0 - 0,0
20.01.2018 07:00:00 11,4 4,4 39 21 61 33 W 1013,6 - 0,0
20.01.2018 06:00:00 11,6 4,6 44 24 68 37 W 1013,0 - 0,0
20.01.2018 05:00:00 11,5 4,2 42 23 63 34 W 1012,4 - 0,0
20.01.2018 04:00:00 11,8 5,4 40 22 64 35 W 1012,0 12 0,0
20.01.2018 03:00:00 11,7 5,8 36 19 66 36 WZW 1012,6 - 0,0
20.01.2018 02:00:00 12,1 7,2 37 20 56 31 W 1012,8 - 0,0
20.01.2018 01:00:00 12,2 7,3 34 18 55 30 WZW 1012,8 - 0,0
20.01.2018 00:00:00 13,3 9,7 36 19 86 46 WZW 1012,2 - 0,0
19.01.2018 23:00:00 12,7 6,3 50 27 97 52 ZW 1011,8 - 0,0
19.01.2018 22:00:00 13,0 4,7 54 29 104 56 WZW 1011,6 - 0,0
19.01.2018 21:00:00 13,0 5,9 42 23 109 59 ZW 1011,7 - 0,0
19.01.2018 20:00:00 12,9 6,2 47 25 109 59 ZW 1011,6 - 0,0
19.01.2018 19:00:00 12,9 6,9 64 35 121 66 WZW 1010,9 10 0,0
19.01.2018 18:00:00 12,7 6,9 59 32 110 59 W 1009,7 - 0,0
19.01.2018 17:00:00 13,0 6,8 69 37 115 62 W 1009,1 - 0,0
19.01.2018 16:00:00 13,8 7,3 76 41 117 63 W 1008,7 10 0,0
19.01.2018 15:00:00 14,3 6,4 72 39 117 63 W 1008,6 - 0,0
19.01.2018 14:00:00 14,7 7,0 62 33 116 63 W 1009,6 - 0,0
19.01.2018 13:00:00 14,4 8,3 71 38 120 65 W 1008,5 - 0,0
19.01.2018 12:00:00 14,3 7,6 73 39 127 69 W 1008,8 - 0,0
19.01.2018 11:00:00 14,3 7,6 68 37 144 78 WZW 1009,5 - 0,0
19.01.2018 10:00:00 14,2 7,3 64 35 125 67 WZW 1009,4 15 0,0
19.01.2018 09:00:00 13,9 7,2 73 40 132 72 WZW 1009,1 - 0,0
19.01.2018 08:00:00 13,3 7,7 77 41 137 74 WZW 1009,2 - 0,0
19.01.2018 07:00:00 13,1 7,5 78 42 134 73 WZW 1009,3 - 0,0
19.01.2018 06:00:00 13,0 7,7 66 36 134 72 WZW 1009,1 - 0,0
19.01.2018 05:00:00 12,8 7,7 74 40 137 74 WZW 1009,8 - 0,0
19.01.2018 04:00:00 12,7 7,2 78 42 151 81 WZW 1009,8 10 0,0
19.01.2018 03:00:00 12,6 6,6 75 41 144 78 WZW 1010,8 - 0,0
19.01.2018 02:00:00 12,6 7,5 69 37 151 82 WZW 1011,3 - 0,0
19.01.2018 01:00:00 12,6 8,3 62 33 120 65 W 1012,4 - 0,0
19.01.2018 00:00:00 12,6 7,3 68 37 126 68 W 1012,8 - 0,0
18.01.2018 23:00:00 12,7 7,4 61 33 126 68 WZW 1013,1 - 0,0
18.01.2018 22:00:00 12,5 7,2 71 38 140 76 W 1012,8 - 0,0
18.01.2018 21:00:00 12,4 7,7 77 41 138 75 W 1013,0 - 0,0
18.01.2018 20:00:00 12,3 7,2 86 47 144 78 W 1012,9 - 0,0
18.01.2018 19:00:00 12,5 7,4 84 45 149 81 W 1013,9 12 0,0
18.01.2018 18:00:00 12,4 6,9 82 44 148 80 WZW 1013,7 - 0,0
18.01.2018 17:00:00 12,5 5,9 84 45 147 79 W 1013,3 - 0,0
18.01.2018 16:00:00 12,6 5,5 79 42 159 86 WZW 1014,3 12 0,0
18.01.2018 15:00:00 12,5 5,6 77 42 128 69 W 1013,8 - 0,0
18.01.2018 14:00:00 12,1 6,4 85 46 141 76 W 1014,6 - 0,0
18.01.2018 13:00:00 12,0 5,4 86 46 140 75 W 1015,3 20 0,0
18.01.2018 12:00:00 12,0 4,5 84 45 151 82 W 1015,3 - 0,0
18.01.2018 11:00:00 11,8 2,8 76 41 135 73 W 1017,3 - 0,0
18.01.2018 10:00:00 11,7 2,9 75 40 122 66 WZW 1017,3 20 0,0
18.01.2018 09:00:00 11,0 2,3 69 37 131 71 W 1017,2 - 0,0
18.01.2018 08:00:00 10,6 1,1 61 33 114 62 WZW 1017,7 - 0,0
18.01.2018 07:00:00 10,5 1,3 67 36 125 68 WZW 1016,4 20 0,0
18.01.2018 06:00:00 10,5 1,3 73 39 119 65 WZW 1016,4 - 0,0
18.01.2018 05:00:00 10,6 0,6 54 29 111 60 WZW 1017,0 - 0,0
18.01.2018 04:00:00 10,7 0,1 55 30 104 56 W 1017,2 20 0,0
18.01.2018 03:00:00 10,7 0,4 43 23 76 41 WZW 1018,6 - 0,0
18.01.2018 02:00:00 10,9 1,7 34 19 76 41 W 1018,3 - 0,0
18.01.2018 01:00:00 9,0 -3,2 25 13 35 19 ZW 1018,7 - 0,0
18.01.2018 00:00:00 9,3 -3,0 13 7 23 12 WNW 1018,9 - 0,0
17.01.2018 23:00:00 11,0 -3,2 18 10 34 18 WNW 1018,0 - 0,0
17.01.2018 22:00:00 11,6 -4,6 25 13 37 20 NW 1017,4 - 0,0
17.01.2018 21:00:00 11,8 -4,4 29 16 43 23 NNW 1016,3 - 0,0
17.01.2018 20:00:00 12,3 -4,4 31 17 46 25 NNW 1015,4 - 0,0
17.01.2018 19:00:00 12,5 -2,2 31 17 53 28 NNW 1014,0 - 0,0
17.01.2018 18:00:00 12,9 -3,4 35 19 51 27 NW 1012,9 - 0,0
17.01.2018 17:00:00 13,2 -1,2 26 14 38 21 WNW 1011,4 - 0,0
17.01.2018 16:00:00 14,6 6,2 23 12 48 26 W 1010,1 - 0,0
17.01.2018 15:00:00 14,9 3,1 37 20 88 47 W 1008,3 - 0,0
17.01.2018 14:00:00 13,8 5,2 71 38 117 63 W 1006,7 - 0,0
17.01.2018 13:00:00 13,4 4,3 98 53 124 67 W 1005,4 - 0,0
17.01.2018 12:00:00 12,8 4,7 93 50 124 67 W 1005,0 - 0,0
17.01.2018 11:00:00 12,5 4,0 96 52 131 71 W 1004,7 - 0,0
17.01.2018 10:00:00 13,3 5,4 93 50 130 70 W 1004,1 12 0,0
17.01.2018 09:00:00 13,4 7,2 102 55 155 84 W 1001,9 - 0,0
17.01.2018 08:00:00 13,8 7,3 121 65 - - W 999,7 - 0,0
17.01.2018 07:00:00 13,9 8,9 114 62 - - W 997,1 - 0,0
17.01.2018 06:00:00 13,9 9,7 100 54 - - W 999,9 - 0,0
17.01.2018 05:00:00 14,0 9,6 117 63 - - W 1000,5 - 0,0
17.01.2018 04:00:00 14,2 9,4 121 66 - - W 1000,2 12 0,0
17.01.2018 03:00:00 14,1 9,1 112 61 - - W 1000,5 - 0,0
17.01.2018 02:00:00 14,0 9,4 131 71 - - W 1000,0 - 0,0
17.01.2018 01:00:00 14,3 8,9 112 61 - - W 1000,9 - 0,0
17.01.2018 00:00:00 14,2 9,0 114 62 - - W 1001,7 - 0,0
16.01.2018 23:00:00 14,2 9,0 116 63 - - W 1002,1 - 0,2
16.01.2018 22:00:00 14,0 9,4 - - - - - 1004,1 - 0,0
16.01.2018 21:00:00 14,1 9,5 94 51 171 92 W 1005,1 - 0,0
16.01.2018 20:00:00 14,3 9,1 94 51 170 92 WZW 1005,8 - 0,0
16.01.2018 19:00:00 14,1 8,5 91 49 166 89 W 1006,7 12 0,0
16.01.2018 18:00:00 13,8 9,2 91 49 - - WZW 1006,9 - 0,0
16.01.2018 17:00:00 14,0 8,4 - - - - - 1006,4 - -

tt = temperatuur
td = dauwpunt
ff = windsnelheid
fx = windstoten
dd = windrichting
ppp = luchtdruk
vv = zicht
rr = neerslag

Weerstations in de omgeving